Wetterdaten: Montag, 10.11.2014
Datum Zeit Temp. A. Feuchte A. Luftdruck Regen Wind Richtung Richtung Sonnenschein ET UV Solar Taupunkt Windchill Windben Empfang
10.11.2014 00:00 8,4 C 85 % 1009,2 hPa 0,0 l/m 0,7 km/h (0 Bft) O 98 0 min 0,000 mm 0,0 UV-I 0 W/m 6,0 C 8,4 C 4,0 km/h (1 Bft) 0,00 %
10.11.2014 00:15 8,4 C 85 % 1009,3 hPa 0,0 l/m 1,4 km/h (1 Bft) O-SO 110 0 min 0,000 mm 0,0 UV-I 0 W/m 6,0 C 8,4 C 4,0 km/h (1 Bft) 0,00 %
10.11.2014 00:30 8,3 C 85 % 1009,5 hPa 0,0 l/m 0,4 km/h (0 Bft) O-SO 108 0 min 0,000 mm 0,0 UV-I 0 W/m 5,9 C 8,3 C 4,0 km/h (1 Bft) 0,00 %
10.11.2014 00:45 8,2 C 85 % 1009,6 hPa 0,0 l/m 0,4 km/h (0 Bft) O-SO 114 0 min 0,000 mm 0,0 UV-I 0 W/m 5,8 C 8,2 C 4,0 km/h (1 Bft) 0,00 %
10.11.2014 01:00 8,1 C 85 % 1009,3 hPa 0,0 l/m 2,2 km/h (1 Bft) O-SO 107 0 min 0,000 mm 0,0 UV-I 0 W/m 5,7 C 8,1 C 4,0 km/h (1 Bft) 0,00 %
10.11.2014 01:15 8,1 C 85 % 1009,4 hPa 0,0 l/m 0,0 km/h (0 Bft) S 176 0 min 0,000 mm 0,0 UV-I 0 W/m 5,7 C 8,1 C 0,0 km/h (0 Bft) 0,00 %
10.11.2014 01:30 8,1 C 85 % 1009,5 hPa 0,3 l/m 0,4 km/h (0 Bft) O-SO 103 0 min 0,000 mm 0,0 UV-I 0 W/m 5,7 C 8,1 C 4,0 km/h (1 Bft) 0,00 %
10.11.2014 01:45 8,0 C 85 % 1009,6 hPa 0,0 l/m 0,0 km/h (0 Bft) SO 145 0 min 0,000 mm 0,0 UV-I 0 W/m 5,6 C 8,0 C 0,0 km/h (0 Bft) 0,00 %
10.11.2014 02:00 7,9 C 85 % 1009,5 hPa 0,0 l/m 0,7 km/h (0 Bft) O-SO 104 0 min 0,000 mm 0,0 UV-I 0 W/m 5,5 C 7,9 C 4,0 km/h (1 Bft) 0,00 %
10.11.2014 02:15 7,9 C 85 % 1009,6 hPa 0,0 l/m 0,0 km/h (0 Bft) SO 124 0 min 0,000 mm 0,0 UV-I 0 W/m 5,5 C 7,9 C 0,0 km/h (0 Bft) 0,00 %
10.11.2014 02:30 7,9 C 85 % 1009,7 hPa 0,0 l/m 2,9 km/h (1 Bft) N-NO 27 0 min 0,000 mm 0,0 UV-I 0 W/m 5,5 C 7,9 C 7,9 km/h (2 Bft) 0,00 %
10.11.2014 02:45 7,9 C 85 % 1009,9 hPa 0,0 l/m 0,4 km/h (0 Bft) NW 318 0 min 0,000 mm 0,0 UV-I 0 W/m 5,5 C 7,9 C 4,0 km/h (1 Bft) 0,00 %
10.11.2014 03:00 7,9 C 85 % 1009,8 hPa 0,0 l/m 0,0 km/h (0 Bft) SW 215 0 min 0,000 mm 0,0 UV-I 0 W/m 5,5 C 7,9 C 0,0 km/h (0 Bft) 0,00 %
10.11.2014 03:15 7,8 C 85 % 1009,8 hPa 0,0 l/m 0,0 km/h (0 Bft) SO 128 0 min 0,000 mm 0,0 UV-I 0 W/m 5,4 C 7,8 C 0,0 km/h (0 Bft) 0,00 %
10.11.2014 03:30 7,9 C 85 % 1010,0 hPa 0,0 l/m 0,0 km/h (0 Bft) S 175 0 min 0,000 mm 0,0 UV-I 0 W/m 5,5 C 7,9 C 0,0 km/h (0 Bft) 0,00 %
10.11.2014 03:45 7,8 C 85 % 1010,0 hPa 0,0 l/m 0,0 km/h (0 Bft) S 187 0 min 0,000 mm 0,0 UV-I 0 W/m 5,4 C 7,8 C 0,0 km/h (0 Bft) 0,00 %
10.11.2014 04:00 7,7 C 85 % 1010,0 hPa 0,0 l/m 0,0 km/h (0 Bft) O-SO 113 0 min 0,000 mm 0,0 UV-I 0 W/m 5,3 C 7,7 C 0,0 km/h (0 Bft) 0,00 %
10.11.2014 04:15 7,7 C 85 % 1010,0 hPa 0,0 l/m 0,0 km/h (0 Bft) S 181 0 min 0,000 mm 0,0 UV-I 0 W/m 5,3 C 7,7 C 0,0 km/h (0 Bft) 0,00 %
10.11.2014 04:30 7,7 C 85 % 1010,2 hPa 0,0 l/m 0,0 km/h (0 Bft) O 96 0 min 0,000 mm 0,0 UV-I 0 W/m 5,3 C 7,7 C 0,0 km/h (0 Bft) 0,00 %
10.11.2014 04:45 7,5 C 85 % 1010,2 hPa 0,0 l/m 1,4 km/h (1 Bft) S 172 0 min 0,000 mm 0,0 UV-I 0 W/m 5,1 C 7,5 C 4,0 km/h (1 Bft) 0,00 %
10.11.2014 05:00 7,5 C 85 % 1010,0 hPa 0,0 l/m 0,0 km/h (0 Bft) SO 125 0 min 0,000 mm 0,0 UV-I 0 W/m 5,1 C 7,5 C 0,0 km/h (0 Bft) 0,00 %
10.11.2014 05:15 7,5 C 85 % 1010,0 hPa 0,0 l/m 0,0 km/h (0 Bft) S 177 0 min 0,000 mm 0,0 UV-I 0 W/m 5,1 C 7,5 C 0,0 km/h (0 Bft) 0,00 %
10.11.2014 05:30 7,5 C 85 % 1010,3 hPa 0,0 l/m 0,0 km/h (0 Bft) SO 129 0 min 0,000 mm 0,0 UV-I 0 W/m 5,1 C 7,5 C 0,0 km/h (0 Bft) 0,00 %
10.11.2014 05:45 7,5 C 85 % 1010,4 hPa 0,0 l/m 0,4 km/h (0 Bft) O-SO 114 0 min 0,000 mm 0,0 UV-I 0 W/m 5,1 C 7,5 C 4,0 km/h (1 Bft) 0,00 %
10.11.2014 06:00 7,5 C 85 % 1010,0 hPa 0,0 l/m 4,3 km/h (1 Bft) O-SO 104 0 min 0,000 mm 0,0 UV-I 0 W/m 5,1 C 7,5 C 7,9 km/h (2 Bft) 0,00 %
10.11.2014 06:15 7,4 C 85 % 1010,9 hPa 0,0 l/m 0,0 km/h (0 Bft) W-SW 253 0 min 0,000 mm 0,0 UV-I 0 W/m 5,0 C 7,4 C 0,0 km/h (0 Bft) 0,00 %
10.11.2014 06:30 7,4 C 85 % 1010,8 hPa 0,0 l/m 0,0 km/h (0 Bft) S 174 0 min 0,000 mm 0,0 UV-I 0 W/m 5,0 C 7,4 C 0,0 km/h (0 Bft) 0,00 %
10.11.2014 06:45 7,4 C 85 % 1011,0 hPa 0,0 l/m 0,0 km/h (0 Bft) S-SW 205 0 min 0,000 mm 0,0 UV-I 0 W/m 5,0 C 7,4 C 0,0 km/h (0 Bft) 0,00 %
10.11.2014 07:00 7,3 C 85 % 1011,1 hPa 0,0 l/m 0,0 km/h (0 Bft) S 173 0 min 0,000 mm 0,0 UV-I 0 W/m 4,9 C 7,3 C 0,0 km/h (0 Bft) 0,00 %
10.11.2014 07:15 7,3 C 85 % 1011,1 hPa 0,0 l/m 0,7 km/h (0 Bft) O-SO 116 0 min 0,000 mm 0,0 UV-I 0 W/m 4,9 C 7,3 C 4,0 km/h (1 Bft) 0,00 %
10.11.2014 07:30 7,2 C 85 % 1011,4 hPa 0,0 l/m 0,0 km/h (0 Bft) SO 137 0 min 0,000 mm 0,0 UV-I 0 W/m 4,9 C 7,2 C 0,0 km/h (0 Bft) 0,00 %
10.11.2014 07:45 7,1 C 85 % 1011,6 hPa 0,0 l/m 0,4 km/h (0 Bft) S 181 0 min 0,000 mm 0,0 UV-I 14 W/m 4,8 C 7,1 C 4,0 km/h (1 Bft) 0,00 %
10.11.2014 08:00 7,1 C 85 % 1011,9 hPa 0,0 l/m 0,0 km/h (0 Bft) S 180 0 min 0,000 mm 0,0 UV-I 37 W/m 4,8 C 7,1 C 0,0 km/h (0 Bft) 0,00 %
10.11.2014 08:15 7,2 C 85 % 1011,8 hPa 0,0 l/m 0,0 km/h (0 Bft) O-SO 102 0 min 0,000 mm 0,0 UV-I 65 W/m 4,9 C 7,2 C 0,0 km/h (0 Bft) 0,00 %
10.11.2014 08:30 7,3 C 85 % 1011,9 hPa 0,0 l/m 0,0 km/h (0 Bft) O-NO 62 0 min 0,000 mm 0,0 UV-I 97 W/m 4,9 C 7,3 C 0,0 km/h (0 Bft) 0,00 %
10.11.2014 08:45 7,2 C 85 % 1012,1 hPa 0,0 l/m 0,0 km/h (0 Bft) W-SW 242 15 min 0,000 mm 1,0 UV-I 141 W/m 4,9 C 7,2 C 0,0 km/h (0 Bft) 0,00 %
10.11.2014 09:00 7,1 C 85 % 1012,4 hPa 0,0 l/m 0,4 km/h (0 Bft) N 351 15 min 0,000 mm 1,0 UV-I 163 W/m 4,8 C 7,1 C 4,0 km/h (1 Bft) 0,00 %
10.11.2014 09:15 7,1 C 85 % 1012,5 hPa 0,0 l/m 0,0 km/h (0 Bft) W 268 15 min 0,000 mm 1,0 UV-I 191 W/m 4,8 C 7,1 C 0,0 km/h (0 Bft) 0,00 %
10.11.2014 09:30 7,0 C 85 % 1012,6 hPa 0,0 l/m 0,0 km/h (0 Bft) W-SW 253 15 min 0,000 mm 1,0 UV-I 243 W/m 4,7 C 7,0 C 0,0 km/h (0 Bft) 0,00 %
10.11.2014 09:45 7,3 C 85 % 1012,7 hPa 0,0 l/m 0,0 km/h (0 Bft) SW 231 15 min 0,000 mm 1,0 UV-I 252 W/m 4,9 C 7,3 C 0,0 km/h (0 Bft) 0,00 %
10.11.2014 10:00 7,4 C 85 % 1013,0 hPa 0,0 l/m 0,0 km/h (0 Bft) SW 230 15 min 0,000 mm 1,0 UV-I 278 W/m 5,0 C 7,4 C 0,0 km/h (0 Bft) 0,00 %
10.11.2014 10:15 7,4 C 85 % 1012,9 hPa 0,0 l/m 0,0 km/h (0 Bft) SW 229 0 min 0,000 mm 1,0 UV-I 198 W/m 5,0 C 7,4 C 0,0 km/h (0 Bft) 0,00 %
10.11.2014 10:30 7,5 C 85 % 1012,8 hPa 0,0 l/m 0,0 km/h (0 Bft) SW 223 15 min 0,000 mm 1,0 UV-I 295 W/m 5,1 C 7,5 C 0,0 km/h (0 Bft) 0,00 %
10.11.2014 10:45 7,7 C 85 % 1012,8 hPa 0,0 l/m 0,0 km/h (0 Bft) SW 226 15 min 0,000 mm 1,0 UV-I 333 W/m 5,3 C 7,7 C 0,0 km/h (0 Bft) 0,00 %
10.11.2014 11:00 7,5 C 85 % 1012,9 hPa 0,0 l/m 0,0 km/h (0 Bft) W-SW 255 15 min 0,000 mm 1,0 UV-I 300 W/m 5,1 C 7,5 C 0,0 km/h (0 Bft) 0,00 %
10.11.2014 11:15 7,6 C 85 % 1012,8 hPa 0,0 l/m 0,0 km/h (0 Bft) W-SW 255 15 min 0,000 mm 1,0 UV-I 286 W/m 5,2 C 7,6 C 0,0 km/h (0 Bft) 0,00 %
10.11.2014 11:30 7,7 C 85 % 1012,6 hPa 0,0 l/m 0,0 km/h (0 Bft) W-SW 256 15 min 0,000 mm 1,0 UV-I 336 W/m 5,3 C 7,7 C 0,0 km/h (0 Bft) 0,00 %
10.11.2014 11:45 7,9 C 85 % 1012,3 hPa 0,0 l/m 0,0 km/h (0 Bft) SW 222 15 min 0,000 mm 1,0 UV-I 289 W/m 5,5 C 7,9 C 0,0 km/h (0 Bft) 0,00 %
10.11.2014 12:00 8,0 C 85 % 1012,3 hPa 0,0 l/m 0,0 km/h (0 Bft) W-SW 243 0 min 0,000 mm 1,0 UV-I 188 W/m 5,6 C 8,0 C 0,0 km/h (0 Bft) 0,00 %
10.11.2014 12:15 8,0 C 84 % 1012,7 hPa 0,0 l/m 0,0 km/h (0 Bft) S-SW 203 0 min 0,000 mm 1,0 UV-I 174 W/m 5,5 C 8,0 C 0,0 km/h (0 Bft) 0,00 %
10.11.2014 12:30 8,0 C 84 % 1012,5 hPa 0,0 l/m 0,0 km/h (0 Bft) W-SW 255 0 min 0,000 mm 1,0 UV-I 154 W/m 5,5 C 8,0 C 0,0 km/h (0 Bft) 0,00 %
10.11.2014 12:45 8,0 C 84 % 1012,7 hPa 0,0 l/m 0,0 km/h (0 Bft) S-SW 198 0 min 0,000 mm 1,0 UV-I 155 W/m 5,5 C 8,0 C 0,0 km/h (0 Bft) 0,00 %
10.11.2014 13:00 8,2 C 83 % 1012,3 hPa 0,0 l/m 0,0 km/h (0 Bft) W-SW 251 15 min 0,000 mm 1,0 UV-I 221 W/m 5,5 C 8,2 C 0,0 km/h (0 Bft) 0,00 %
10.11.2014 13:15 8,3 C 82 % 1012,2 hPa 0,0 l/m 0,0 km/h (0 Bft) W-SW 256 0 min 0,000 mm 1,0 UV-I 181 W/m 5,4 C 8,3 C 0,0 km/h (0 Bft) 0,00 %
10.11.2014 13:30 8,6 C 81 % 1012,3 hPa 0,0 l/m 0,0 km/h (0 Bft) W-SW 256 0 min 0,000 mm 1,0 UV-I 151 W/m 5,5 C 8,6 C 0,0 km/h (0 Bft) 0,00 %
10.11.2014 13:45 8,5 C 81 % 1012,3 hPa 0,0 l/m 0,0 km/h (0 Bft) W-SW 256 0 min 0,000 mm 1,0 UV-I 114 W/m 5,4 C 8,5 C 0,0 km/h (0 Bft) 0,00 %
10.11.2014 14:00 8,4 C 82 % 1012,1 hPa 0,0 l/m 0,0 km/h (0 Bft) O-NO 59 0 min 0,000 mm 1,0 UV-I 144 W/m 5,5 C 8,4 C 0,0 km/h (0 Bft) 0,00 %
10.11.2014 14:15 8,2 C 82 % 1012,2 hPa 0,0 l/m 0,0 km/h (0 Bft) NO 49 0 min 0,000 mm 0,0 UV-I 87 W/m 5,3 C 8,2 C 0,0 km/h (0 Bft) 0,00 %
10.11.2014 14:30 8,2 C 82 % 1012,4 hPa 0,0 l/m 0,0 km/h (0 Bft) O-NO 68 0 min 0,000 mm 0,0 UV-I 40 W/m 5,3 C 8,2 C 0,0 km/h (0 Bft) 0,00 %
10.11.2014 14:45 8,2 C 82 % 1011,9 hPa 0,0 l/m 0,0 km/h (0 Bft) N-NO 14 0 min 0,000 mm 0,0 UV-I 46 W/m 5,3 C 8,2 C 0,0 km/h (0 Bft) 0,00 %
10.11.2014 15:00 8,1 C 82 % 1012,3 hPa 0,0 l/m 0,0 km/h (0 Bft) SO 130 0 min 0,000 mm 0,0 UV-I 28 W/m 5,2 C 8,1 C 0,0 km/h (0 Bft) 0,00 %
10.11.2014 15:15 8,2 C 82 % 1012,1 hPa 0,0 l/m 0,0 km/h (0 Bft) S 189 0 min 0,000 mm 0,0 UV-I 1 W/m 5,3 C 8,2 C 0,0 km/h (0 Bft) 0,00 %
10.11.2014 15:30 8,1 C 82 % 1012,0 hPa 0,0 l/m 0,0 km/h (0 Bft) O 100 0 min 0,000 mm 0,0 UV-I 0 W/m 5,2 C 8,1 C 0,0 km/h (0 Bft) 0,00 %
10.11.2014 15:45 8,0 C 82 % 1012,2 hPa 0,0 l/m 0,0 km/h (0 Bft) O 96 0 min 0,000 mm 0,0 UV-I 0 W/m 5,1 C 8,0 C 0,0 km/h (0 Bft) 0,00 %
10.11.2014 16:00 8,0 C 82 % 1012,2 hPa 0,0 l/m 0,0 km/h (0 Bft) S-SO 166 0 min 0,000 mm 0,0 UV-I 0 W/m 5,1 C 8,0 C 0,0 km/h (0 Bft) 0,00 %
10.11.2014 16:15 7,9 C 83 % 1012,4 hPa 0,0 l/m 0,0 km/h (0 Bft) O-SO 108 0 min 0,000 mm 0,0 UV-I 0 W/m 5,2 C 7,9 C 0,0 km/h (0 Bft) 0,00 %
10.11.2014 16:30 7,8 C 83 % 1012,2 hPa 0,0 l/m 0,0 km/h (0 Bft) S-SO 163 0 min 0,000 mm 0,0 UV-I 0 W/m 5,1 C 7,8 C 0,0 km/h (0 Bft) 0,00 %
10.11.2014 16:45 7,7 C 83 % 1012,1 hPa 0,0 l/m 0,4 km/h (0 Bft) O-NO 69 0 min 0,000 mm 0,0 UV-I 0 W/m 5,0 C 7,7 C 4,0 km/h (1 Bft) 0,00 %
10.11.2014 17:00 7,6 C 83 % 1012,1 hPa 0,0 l/m 3,2 km/h (1 Bft) O-SO 102 0 min 0,000 mm 0,0 UV-I 0 W/m 4,9 C 7,6 C 7,9 km/h (2 Bft) 0,00 %
10.11.2014 17:15 7,5 C 83 % 1012,1 hPa 0,0 l/m 0,7 km/h (0 Bft) SO 130 0 min 0,000 mm 0,0 UV-I 0 W/m 4,8 C 7,5 C 4,0 km/h (1 Bft) 0,00 %
10.11.2014 17:30 7,5 C 83 % 1012,4 hPa 0,0 l/m 0,0 km/h (0 Bft) O-SO 103 0 min 0,000 mm 0,0 UV-I 0 W/m 4,8 C 7,5 C 0,0 km/h (0 Bft) 0,00 %
10.11.2014 17:45 7,4 C 83 % 1012,2 hPa 0,0 l/m 0,0 km/h (0 Bft) NO 34 0 min 0,000 mm 0,0 UV-I 0 W/m 4,7 C 7,4 C 0,0 km/h (0 Bft) 0,00 %
10.11.2014 18:00 7,4 C 84 % 1012,2 hPa 0,0 l/m 0,0 km/h (0 Bft) N 356 0 min 0,000 mm 0,0 UV-I 0 W/m 4,9 C 7,4 C 0,0 km/h (0 Bft) 0,00 %
10.11.2014 18:15 7,3 C 84 % 1012,4 hPa 0,0 l/m 0,0 km/h (0 Bft) W-SW 255 0 min 0,000 mm 0,0 UV-I 0 W/m 4,8 C 7,3 C 0,0 km/h (0 Bft) 0,00 %
10.11.2014 18:30 7,3 C 84 % 1012,6 hPa 0,0 l/m 0,0 km/h (0 Bft) S-SW 204 0 min 0,000 mm 0,0 UV-I 0 W/m 4,8 C 7,3 C 0,0 km/h (0 Bft) 0,00 %
10.11.2014 18:45 7,3 C 84 % 1012,7 hPa 0,0 l/m 0,0 km/h (0 Bft) S 176 0 min 0,000 mm 0,0 UV-I 0 W/m 4,8 C 7,3 C 0,0 km/h (0 Bft) 0,00 %
10.11.2014 19:00 7,3 C 84 % 1012,9 hPa 0,0 l/m 0,0 km/h (0 Bft) S-SW 202 0 min 0,000 mm 0,0 UV-I 0 W/m 4,8 C 7,3 C 0,0 km/h (0 Bft) 0,00 %
10.11.2014 19:15 7,3 C 84 % 1012,8 hPa 0,0 l/m 0,0 km/h (0 Bft) W-SW 256 0 min 0,000 mm 0,0 UV-I 0 W/m 4,8 C 7,3 C 0,0 km/h (0 Bft) 0,00 %
10.11.2014 19:30 7,4 C 84 % 1012,9 hPa 0,0 l/m 0,4 km/h (0 Bft) W-SW 256 0 min 0,000 mm 0,0 UV-I 0 W/m 4,9 C 7,4 C 4,0 km/h (1 Bft) 0,00 %
10.11.2014 19:45 7,3 C 84 % 1012,8 hPa 0,0 l/m 0,0 km/h (0 Bft) S-SW 211 0 min 0,000 mm 0,0 UV-I 0 W/m 4,8 C 7,3 C 0,0 km/h (0 Bft) 0,00 %
10.11.2014 20:00 7,3 C 84 % 1012,7 hPa 0,0 l/m 0,0 km/h (0 Bft) SW 227 0 min 0,000 mm 0,0 UV-I 0 W/m 4,8 C 7,3 C 0,0 km/h (0 Bft) 0,00 %
10.11.2014 20:15 7,3 C 84 % 1012,6 hPa 0,0 l/m 0,0 km/h (0 Bft) W-SW 238 0 min 0,000 mm 0,0 UV-I 0 W/m 4,8 C 7,3 C 0,0 km/h (0 Bft) 0,00 %
10.11.2014 20:30 7,3 C 84 % 1013,1 hPa 0,0 l/m 0,0 km/h (0 Bft) W-SW 255 0 min 0,000 mm 0,0 UV-I 0 W/m 4,8 C 7,3 C 0,0 km/h (0 Bft) 0,00 %
10.11.2014 20:45 7,2 C 85 % 1013,1 hPa 0,0 l/m 0,0 km/h (0 Bft) S 186 0 min 0,000 mm 0,0 UV-I 0 W/m 4,9 C 7,2 C 0,0 km/h (0 Bft) 0,00 %
10.11.2014 21:00 7,2 C 85 % 1013,0 hPa 0,0 l/m 0,0 km/h (0 Bft) S 175 0 min 0,000 mm 0,0 UV-I 0 W/m 4,9 C 7,2 C 0,0 km/h (0 Bft) 0,00 %
10.11.2014 21:15 7,1 C 85 % 1013,3 hPa 0,0 l/m 0,0 km/h (0 Bft) SW 233 0 min 0,000 mm 0,0 UV-I 0 W/m 4,8 C 7,1 C 0,0 km/h (0 Bft) 0,00 %
10.11.2014 21:30 7,1 C 85 % 1013,1 hPa 0,0 l/m 0,0 km/h (0 Bft) W-SW 254 0 min 0,000 mm 0,0 UV-I 0 W/m 4,8 C 7,1 C 0,0 km/h (0 Bft) 0,00 %
10.11.2014 21:45 7,2 C 85 % 1013,2 hPa 0,0 l/m 0,0 km/h (0 Bft) O-SO 114 0 min 0,000 mm 0,0 UV-I 0 W/m 4,9 C 7,2 C 0,0 km/h (0 Bft) 0,00 %
10.11.2014 22:00 7,2 C 85 % 1012,9 hPa 0,0 l/m 0,0 km/h (0 Bft) S 177 0 min 0,000 mm 0,0 UV-I 0 W/m 4,9 C 7,2 C 0,0 km/h (0 Bft) 0,00 %
10.11.2014 22:15 7,1 C 85 % 1012,9 hPa 0,0 l/m 0,0 km/h (0 Bft) SW 225 0 min 0,000 mm 0,0 UV-I 0 W/m 4,8 C 7,1 C 0,0 km/h (0 Bft) 0,00 %
10.11.2014 22:30 7,1 C 85 % 1012,9 hPa 0,0 l/m 0,0 km/h (0 Bft) SW 225 0 min 0,000 mm 0,0 UV-I 0 W/m 4,8 C 7,1 C 0,0 km/h (0 Bft) 0,00 %
10.11.2014 22:45 7,1 C 85 % 1012,6 hPa 0,0 l/m 0,0 km/h (0 Bft) SW 221 0 min 0,000 mm 0,0 UV-I 0 W/m 4,8 C 7,1 C 0,0 km/h (0 Bft) 0,00 %
10.11.2014 23:00 7,1 C 85 % 1012,9 hPa 0,0 l/m 0,0 km/h (0 Bft) SW 221 0 min 0,000 mm 0,0 UV-I 0 W/m 4,8 C 7,1 C 0,0 km/h (0 Bft) 0,00 %
10.11.2014 23:15 7,1 C 85 % 1013,0 hPa 0,0 l/m 0,0 km/h (0 Bft) S-SO 164 0 min 0,000 mm 0,0 UV-I 0 W/m 4,8 C 7,1 C 0,0 km/h (0 Bft) 0,00 %
10.11.2014 23:30 7,1 C 85 % 1012,7 hPa 0,0 l/m 0,0 km/h (0 Bft) S-SO 165 0 min 0,000 mm 0,0 UV-I 0 W/m 4,8 C 7,1 C 0,0 km/h (0 Bft) 0,00 %
10.11.2014 23:45 7,1 C 85 % 1012,8 hPa 0,0 l/m 0,0 km/h (0 Bft) S-SO 167 0 min 0,000 mm 0,0 UV-I 0 W/m 4,8 C 7,1 C 0,0 km/h (0 Bft) 0,00 %
_ Min-Zeit 09:30 13:30 00:00 - 01:15 - - - - - - 09:30 09:30 01:15 00:00
Minimum _ 7,0 C 81 % 1009,2 hPa - 0,0 km/h (0 Bft) - - - - - - 4,7 C 7,0 C 0,0 km/h (0 Bft) 0,00 %
_ Max-Zeit 13:30 00:00 21:15 01:30 06:00 - - 08:45 00:00 08:45 11:30 00:00 13:30 02:30 00:00
Maximum _ 8,6 C 85 % 1013,3 hPa 0,3 l/m 4,3 km/h
O-SO (1 Bft)
- - 15 min 0,000 mm 1,0 UV-I 336 W/m 6,0 C 8,6 C 7,9 km/h
N-NO (2 Bft)
0,00 %
Durchschnitt _ 7,6 C 84 % 1011,7 hPa #0,3 l/m 0,2 km/h (0 Bft) O-SO - #3:15 h #0,000 mm 1,0 UV-I 168 W/m 5,1 C 7,6 C 0,9 km/h (0 Bft) 0,00 %